Location: Newark
(49.3000°N, 9.4667°E)
Time: 13:47:07
(UTC+00:00)

S-56A Canister/Altair - Pass Details

Date: 27 May 2019
Orbit: 633 x 2499 km, 38.9° (Epoch: 19 June)

Event Time Altitude Azimuth Distance (km) Brightness Sun altitude
Exits shadow 00:16:15 27° 171° (S) 1,814 8.9 -18.4°
Maximum altitude 00:17:13 28° 156° (SSE) 1,839 9.0 -18.3°
Drops below altitude 10° 00:23:50 10° 102° (ESE) 3,411 10.9 -18.0°
Sets 00:27:54 0° 93° (E) 4,736 11.8 -17.8°
